FW8702 Weather Reports


time (UTC)temp
C
wind
direction
speed
KPH
gust
KPH
rain 1hr
cm
rain 24hr
cm
rain mn
cm
humidity
%
barometer
mb
20260902090021 25 271 3.2 9.7 0.00 0.00 0.00 69 1021.4
20260902084602 25 274 4.8 11.3 0.00 0.00 0.00 67 1021.3
20260902083013 25 265 0.0 6.4 0.00 0.00 0.00 69 1021.2
20260902081550 24 261 1.6 4.8 0.00 0.00 0.00 70 1021.2
20260902080006 23 267 0.0 4.8 0.00 0.00 0.00 71 1021.1
20260902074523 23 280 1.6 11.3 0.00 0.00 0.00 74 1020.9
20260902073008 22 350 0.0 3.2 0.00 0.00 0.00 76 1021.1
20260902071538 22 359 0.0 3.2 0.00 0.00 0.00 77 1020.8
20260902070025 22 241 1.6 4.8 0.00 0.00 0.00 79 1020.9
20260902064550 22 350 1.6 11.3 0.00 0.00 0.00 79 1020.8
20260902063104 21 330 1.6 6.4 0.00 0.00 0.00 80 1020.6
20260902061548 21 333 1.6 4.8 0.00 0.00 0.00 81 1020.7
20260902060034 21 338 0.0 6.4 0.00 0.00 0.00 81 1020.6
20260902054530 21 300 0.0 6.4 0.00 0.00 0.00 81 1020.5
20260902053011 20 339 3.2 6.4 0.00 0.00 0.00 82 1020.3
20260902051527 20 297 0.0 1.6 0.00 0.00 0.00 83 1020.4
20260902050019 20 264 0.0 4.8 0.00 0.00 0.00 82 1020.1
20260902044532 20 273 0.0 3.2 0.00 0.00 0.00 82 1020.4
20260902043007 20 324 0.0 3.2 0.00 0.00 0.00 83 1020.3
20260902041534 19 270 0.0 6.4 0.00 0.00 0.00 83 1020.1
20260902040035 19 309 0.0 3.2 0.00 0.00 0.00 83 1020.1
20260902034526 19 337 0.0 3.2 0.00 0.00 0.00 83 1020.1
20260902033051 20 278 0.0 1.6 0.00 0.00 0.00 83 1020.1
20260902031524 20 280 0.0 3.2 0.00 0.00 0.00 83 1020.1
20260902030054 20 337 0.0 4.8 0.00 0.00 0.00 83 1020.3
20260902024538 20 276 1.6 4.8 0.00 0.00 0.00 83 1020.1
20260902023055 20 281 0.0 8.0 0.00 0.00 0.00 82 1020.0
20260902021527 20 279 3.2 4.8 0.00 0.00 0.00 82 1020.3
20260902020059 20 334 1.6 4.8 0.00 0.00 0.00 82 1020.2
20260902014520 20 344 0.0 6.4 0.00 0.00 0.00 82 1020.1
20260902013022 20 289 0.0 6.4 0.00 0.00 0.00 83 1020.1
20260902011533 20 262 0.0 4.8 0.00 0.00 0.00 83 1020.1
20260902010043 20 291 1.6 6.4 0.00 0.00 0.00 83 1020.2
20260902004600 20 291 0.0 3.2 0.00 0.00 0.00 83 1020.0
20260902003057 20 23 0.0 4.8 0.00 0.00 0.00 83 1020.2
20260902001532 20 13 0.0 0.0 0.00 0.00 0.00 82 1020.0
20260902000119 21 22 0.0 1.6 0.00 0.00 0.00 82 1020.1
20260901234539 21 348 0.0 4.8 0.00 0.00 0.00 82 1020.1
20260901233108 21 64 0.0 4.8 0.00 0.00 0.00 83 1020.1
20260901231510 21 312 0.0 3.2 0.00 0.00 0.00 82 1020.0
20260901230113 21 345 1.6 4.8 0.00 0.00 0.00 82 1020.0
20260901224506 21 288 0.0 3.2 0.00 0.00 0.00 81 1020.1
20260901223024 22 323 0.0 8.0 0.00 0.00 0.00 81 1020.0
20260901221537 21 280 3.2 8.0 0.00 0.00 0.00 83 1020.1
20260901220134 20 282 1.6 4.8 0.00 0.00 0.00 83 1020.1
20260901214517 20 296 0.0 3.2 0.00 0.00 0.00 83 1020.0
20260901213114 20 348 0.0 3.2 0.00 0.00 0.00 83 1020.1
20260901211522 20 317 0.0 0.0 0.00 0.00 0.00 82 1020.0
20260901210059 20 317 0.0 3.2 0.00 0.00 0.00 83 1020.0
20260901204541 20 294 0.0 3.2 0.00 0.00 0.00 83 1019.9
20260901203053 21 310 0.0 0.0 0.00 0.00 0.00 82 1019.8
20260901201601 21 310 0.0 3.2 0.00 0.00 0.00 82 1019.6
20260901200023 21 289 1.6 3.2 0.00 0.00 0.00 82 1019.6
20260901194513 21 325 0.0 3.2 0.00 0.00 0.00 82 1019.4
20260901193002 21 281 1.6 3.2 0.00 0.00 0.00 82 1019.4
20260901191505 22 283 0.0 3.2 0.00 0.00 0.00 82 1019.2
20260901190056 22 283 0.0 3.2 0.00 0.00 0.00 81 1019.0
20260901184534 22 284 0.0 0.0 0.00 0.00 0.00 81 1018.7
20260901183100 23 281 0.0 4.8 0.00 0.00 0.00 80 1018.6
20260901181534 24 341 0.0 0.0 0.00 0.00 0.00 77 1018.4
20260901180017 24 338 1.6 4.8 0.00 0.00 0.00 77 1018.4
20260901174547 25 335 0.0 3.2 0.00 0.00 0.00 77 1018.3
20260901173052 25 284 0.0 4.8 0.00 0.00 0.00 77 1018.1
20260901171559 25 276 0.0 3.2 0.00 0.00 0.00 75 1018.1
20260901170018 27 285 0.0 1.6 0.00 0.00 0.00 67 1017.9
20260901164545 28 285 0.0 0.0 0.00 0.00 0.00 62 1018.1
20260901163026 28 257 0.0 4.8 0.00 0.00 0.00 57 1018.1
20260901161512 28 240 1.6 3.2 0.00 0.00 0.00 58 1018.2
20260901160033 28 256 0.0 4.8 0.00 0.00 0.00 59 1018.1
20260901154602 28 243 0.0 4.8 0.00 0.00 0.00 59 1018.3
20260901153040 28 206 1.6 6.4 0.00 0.00 0.00 59 1018.3
20260901151535 29 248 1.6 6.4 0.00 0.00 0.00 56 1018.1
20260901150041 28 242 0.0 8.0 0.00 0.00 0.00 60 1018.2
20260901144523 29 198 1.6 8.0 0.00 0.00 0.00 57 1018.3
20260901143047 28 220 3.2 9.7 0.00 0.00 0.00 60 1018.4
20260901141518 30 222 1.6 9.7 0.00 0.00 0.00 56 1018.5
20260901134522 29 249 1.6 6.4 0.00 0.00 0.00 57 1018.7
20260901133054 28 118 1.6 12.9 0.00 0.00 0.00 58 1018.8
20260901131509 29 211 1.6 9.7 0.00 0.00 0.00 59 1018.9
20260901130033 28 281 0.0 11.3 0.00 0.00 0.00 60 1019.1
20260901124516 28 104 3.2 9.7 0.00 0.00 0.00 60 1019.3
20260901123058 28 233 0.0 8.0 0.00 0.00 0.00 58 1019.3
20260901121514 27 223 3.2 8.0 0.00 0.00 0.00 58 1019.5
20260901120025 27 144 1.6 6.4 0.00 0.00 0.00 60 1019.6
20260901114501 27 36 1.6 6.4 0.00 0.00 0.00 59 1019.9
20260901113049 27 78 0.0 8.0 0.00 0.00 0.00 57 1019.8
20260901111550 27 261 1.6 8.0 0.00 0.00 0.00 55 1019.9
20260901110055 27 118 3.2 9.7 0.00 0.00 0.00 55 1020.0
20260901104557 26 256 0.0 4.8 0.00 0.00 0.00 57 1020.0
20260901103026 26 294 6.4 12.9 0.00 0.00 0.00 55 1020.1
20260901101504 26 261 3.2 12.9 0.00 0.00 0.00 53 1020.3
20260901100051 25 279 4.8 11.3 0.00 0.00 0.00 54 1020.3
20260901094514 25 262 0.0 4.8 0.00 0.00 0.00 53 1020.4
20260901093101 25 86 1.6 9.7 0.00 0.00 0.00 51 1020.4
20260901091556 25 343 0.0 4.8 0.00 0.00 0.00 50 1020.5